Location: Poughquag
(41.6090°N, 73.6820°W)
Time: 04:51:43
(UTC-04:00)

ITUPSAT 1 - Pass Details

Date: 21 June 2024
Orbit: 695 x 705 km, 98.5° (Epoch: 24 July)

Event Time Altitude Azimuth Distance (km) Brightness Sun altitude
Rises 00:25:49 0° 356° (N) 3,106 ? -24.6°
Reaches altitude 10° 00:28:48 10° 337° (NNW) 2,184 ? -24.6°
Maximum altitude 00:31:47 17° 298° (WNW) 1,759 ? -24.7°
Drops below altitude 10° 00:34:47 10° 258° (WSW) 2,175 ? -24.8°
Enters shadow 00:34:52 10° 258° (WSW) 2,196 ? -24.8°
